Weather in Pogranichnyj

Belarus     53°06′56″N   23°58′47″E
temp.,
°C
wind,
m/s
gust,
m/s
humid.,
%
clouds,
%
prec.,
mm/h
press.,
hPa
HPBL,
m
3 august, tue
tue300:00+13sw38911 0.0 1010142
03:00+11wsw489339 0.1 1011152
06:00+13wsw3890100 0.0 1012195
09:00+15wsw488210 0.0 1013466
12:00+19w675928 0.1 10141509
15:00+19wsw5761100 0.1 10141406
18:00+20wsw476171 0.0 10141359
21:00+17wsw23717 0.0 101453
4 august, wed
wed400:00+16s2366100 0.0 101551
03:00+16s356399 0.0 101593
06:00+14s2382100 0.0 101557
09:00+17s2377100 0.0 1016134
12:00+21sse2357100 0.0 1015904
15:00+22s2463100 2.0 1014994
18:00+19n2483100 6.3 1013255
21:00+15nne2496100 23.6 1013157
5 august, thu
thu500:00+14ese259898 0.0 1013175
03:00+14ene239774 0.0 1013110
06:00+14ne359626 0.0 1012220
09:00+16nne458896 0.0 1012463
12:00+17ne4481100 0.0 1011717
15:00+18ne347699 0.1 1011824
18:00+20ene4570100 0.0 10091121
21:00+17ne5984100 0.1 1007377
6 august, fri
fri600:00+15ne41092100 0.0 1006337
03:00+15ne51098100 0.4 1003404
06:00+15ne5998100 2.4 1002412
09:00+15nne4898100 4.7 1002379
12:00+15nne4798100 5.9 1003367
15:00+15n3698100 12.2 1003355
18:00+14nnw3598100 2.8 1004337
21:00+14wnw2598100 5.0 1005296
7 august, sat
sat700:00+14wsw3498100 0.1 1006282
03:00+14w4898100 0.1 1007359
06:00+13w369856 0.0 1008190
09:00+16wsw459050 0.0 1009455
12:00+20wsw576822 0.0 10091235
15:00+22wsw685938 0.2 10091774
18:00+20sw3673100 0.0 1010197
21:00+19sw3677100 0.0 1011127